• en France
  • Liste des pays
  • À 7 jours
  • Température de l'eau
  • Carte satellitaire
  • Carte météo
  • Widgets météo
  • user-avatar
    Se connecter

    Météo par heure à Kiszewy

    Ce jour, 18 Juin, Lundi

    Heure Température Précipitation Vent Pression Humidité
    00:00 +19°C° 0,5 mm 2 m/s 751 mmHg 81%
    01:00 +18°C° 0 mm 2 m/s 751 mmHg 86%
    02:00 +17°C° 0,1 mm 2 m/s 751 mmHg 88%
    03:00 +16°C° 0,1 mm 2 m/s 751 mmHg 90%
    04:00 +16°C° 0,1 mm 3 m/s 751 mmHg 91%
    05:00 +17°C° 0,1 mm 3 m/s 752 mmHg 87%
    06:00 +18°C° 0,1 mm 3 m/s 752 mmHg 82%
    07:00 +19°C° 0 mm 3 m/s 752 mmHg 79%
    08:00 +20°C° 0,2 mm 3 m/s 752 mmHg 73%
    09:00 +22°C° 0,2 mm 3 m/s 752 mmHg 67%
    10:00 +23°C° 0,2 mm 4 m/s 752 mmHg 62%
    11:00 +25°C° 0,1 mm 4 m/s 752 mmHg 59%
    12:00 +26°C° 0,1 mm 3 m/s 753 mmHg 55%
    13:00 +26°C° 0,1 mm 3 m/s 753 mmHg 52%
    14:00 +26°C° 0 mm 3 m/s 753 mmHg 53%
    15:00 +26°C° 0 mm 3 m/s 752 mmHg 53%
    16:00 +26°C° 0 mm 4 m/s 752 mmHg 54%
    17:00 +25°C° 0 mm 3 m/s 752 mmHg 59%
    18:00 +24°C° 0 mm 3 m/s 752 mmHg 64%
    19:00 +22°C° 0 mm 3 m/s 753 mmHg 69%
    20:00 +20°C° 0 mm 3 m/s 753 mmHg 71%
    21:00 +19°C° 0 mm 2 m/s 753 mmHg 73%
    22:00 +18°C° 0 mm 2 m/s 753 mmHg 75%
    23:00 +17°C° 0 mm 2 m/s 753 mmHg 76%

    Demain, 19 Juin, Mardi

    Heure Température Précipitation Vent Pression Humidité
    00:00 +17°C° 0 mm 2 m/s 754 mmHg 77%
    01:00 +16°C° 0 mm 2 m/s 754 mmHg 79%
    02:00 +16°C° 0 mm 2 m/s 754 mmHg 79%
    03:00 +15°C° 0 mm 2 m/s 754 mmHg 80%
    04:00 +15°C° 0 mm 2 m/s 754 mmHg 80%
    05:00 +17°C° 0 mm 2 m/s 754 mmHg 76%
    06:00 +18°C° 0 mm 3 m/s 754 mmHg 73%
    07:00 +20°C° 0 mm 3 m/s 754 mmHg 69%
    08:00 +21°C° 0 mm 3 m/s 754 mmHg 66%
    09:00 +22°C° 0 mm 4 m/s 754 mmHg 64%
    10:00 +25°C° 0 mm 4 m/s 754 mmHg 61%
    11:00 +23°C° 0,1 mm 4 m/s 754 mmHg 63%
    12:00 +23°C° 0,1 mm 4 m/s 754 mmHg 66%
    13:00 +23°C° 0,1 mm 4 m/s 754 mmHg 69%
    14:00 +23°C° 0 mm 4 m/s 754 mmHg 66%
    15:00 +25°C° 0 mm 4 m/s 754 mmHg 64%
    16:00 +25°C° 0 mm 4 m/s 754 mmHg 62%
    17:00 +24°C° 0 mm 3 m/s 754 mmHg 66%
    18:00 +24°C° 0 mm 3 m/s 754 mmHg 69%
    19:00 +23°C° 0 mm 2 m/s 754 mmHg 73%
    20:00 +21°C° 0 mm 2 m/s 755 mmHg 75%
    21:00 +19°C° 0 mm 2 m/s 755 mmHg 77%
    22:00 +19°C° 0 mm 1 m/s 755 mmHg 79%
    23:00 +19°C° 0 mm 1 m/s 755 mmHg 81%

    Après-demain, 20 Juin, Mercredi

    Heure Température Précipitation Vent Pression Humidité
    00:00 +17°C° 0 mm 2 m/s 755 mmHg 83%
    01:00 +17°C° 0 mm 2 m/s 756 mmHg 84%
    02:00 +17°C° 0 mm 2 m/s 756 mmHg 86%
    03:00 +16°C° 0 mm 1 m/s 756 mmHg 88%
    04:00 +16°C° 0 mm 1 m/s 756 mmHg 91%
    05:00 +18°C° 0 mm 1 m/s 756 mmHg 86%
    06:00 +20°C° 0 mm 1 m/s 756 mmHg 81%
    07:00 +21°C° 0 mm 1 m/s 756 mmHg 76%
    08:00 +21°C° 0,1 mm 2 m/s 756 mmHg 72%
    09:00 +24°C° 0,1 mm 2 m/s 756 mmHg 68%
    10:00 +25°C° 0,1 mm 2 m/s 756 mmHg 64%
    11:00 +25°C° 0,1 mm 2 m/s 756 mmHg 63%
    12:00 +26°C° 0,1 mm 2 m/s 756 mmHg 61%
    13:00 +26°C° 0,1 mm 2 m/s 755 mmHg 59%
    14:00 +26°C° 0 mm 2 m/s 755 mmHg 58%
    15:00 +27°C° 0 mm 2 m/s 755 mmHg 58%
    16:00 +27°C° 0 mm 2 m/s 754 mmHg 57%
    17:00 +26°C° 0 mm 2 m/s 754 mmHg 61%
    18:00 +25°C° 0 mm 2 m/s 754 mmHg 66%
    19:00 +25°C° 0 mm 1 m/s 754 mmHg 70%
    20:00 +23°C° 0 mm 1 m/s 754 mmHg 73%
    21:00 +22°C° 0 mm 1 m/s 754 mmHg 76%
    22:00 +21°C° 0 mm 1 m/s 754 mmHg 80%
    23:00 +20°C° 0 mm 1 m/s 754 mmHg 81%

    21 Juin, Jeudi

    Heure Température Précipitation Vent Pression Humidité
    00:00 +20°C° 0 mm 1 m/s 753 mmHg 83%
    01:00 +19°C° 0 mm 2 m/s 753 mmHg 84%
    02:00 +18°C° 0 mm 2 m/s 753 mmHg 86%
    03:00 +18°C° 0 mm 2 m/s 752 mmHg 87%
    04:00 +18°C° 0 mm 2 m/s 752 mmHg 89%
    05:00 +20°C° 0 mm 2 m/s 752 mmHg 83%
    06:00 +21°C° 0 mm 3 m/s 751 mmHg 78%
    07:00 +24°C° 0 mm 3 m/s 751 mmHg 73%
    08:00 +25°C° 0,1 mm 3 m/s 750 mmHg 68%
    09:00 +27°C° 0,1 mm 4 m/s 750 mmHg 63%
    10:00 +28°C° 0,1 mm 4 m/s 749 mmHg 57%
    11:00 +29°C° 0,1 mm 4 m/s 748 mmHg 56%
    12:00 +29°C° 0,1 mm 4 m/s 748 mmHg 54%
    13:00 +30°C° 0,1 mm 4 m/s 747 mmHg 52%
    14:00 +30°C° 0 mm 4 m/s 746 mmHg 53%
    15:00 +30°C° 0 mm 4 m/s 745 mmHg 53%
    16:00 +30°C° 0 mm 4 m/s 744 mmHg 54%
    17:00 +29°C° 0,4 mm 4 m/s 744 mmHg 60%
    18:00 +27°C° 0,4 mm 4 m/s 743 mmHg 67%
    19:00 +26°C° 0,4 mm 4 m/s 743 mmHg 73%
    20:00 +23°C° 1 mm 5 m/s 743 mmHg 78%
    21:00 +21°C° 1 mm 6 m/s 744 mmHg 84%
    22:00 +18°C° 1 mm 7 m/s 744 mmHg 90%
    23:00 +16°C° 0 mm 7 m/s 745 mmHg 88%

    22 Juin, Vendredi

    Heure Température Précipitation Vent Pression Humidité
    00:00 +14°C° 0 mm 7 m/s 745 mmHg 87%
    01:00 +11°C° 0 mm 7 m/s 746 mmHg 86%
    02:00 +11°C° 0 mm 7 m/s 747 mmHg 84%
    03:00 +10°C° 0 mm 6 m/s 747 mmHg 82%
    04:00 +9°C° 0 mm 6 m/s 748 mmHg 80%
    05:00 +9°C° 0 mm 6 m/s 748 mmHg 78%
    06:00 +10°C° 0 mm 7 m/s 748 mmHg 75%
    07:00 +10°C° 0 mm 8 m/s 749 mmHg 72%
    08:00 +11°C° 0 mm 8 m/s 749 mmHg 67%
    09:00 +13°C° 0 mm 8 m/s 749 mmHg 61%
    10:00 +15°C° 0 mm 8 m/s 749 mmHg 55%
    11:00 +15°C° 0,1 mm 7 m/s 749 mmHg 55%
    12:00 +15°C° 0,1 mm 7 m/s 749 mmHg 56%
    13:00 +15°C° 0,1 mm 7 m/s 749 mmHg 56%
    14:00 +15°C° 0,2 mm 7 m/s 749 mmHg 55%
    15:00 +15°C° 0,2 mm 8 m/s 748 mmHg 55%
    16:00 +16°C° 0,2 mm 8 m/s 748 mmHg 54%
    17:00 +15°C° 0 mm 7 m/s 748 mmHg 59%
    18:00 +15°C° 0 mm 5 m/s 748 mmHg 63%
    19:00 +14°C° 0 mm 4 m/s 748 mmHg 67%
    20:00 +13°C° 0 mm 4 m/s 748 mmHg 70%
    21:00 +12°C° 0 mm 4 m/s 748 mmHg 73%
    22:00 +11°C° 0 mm 4 m/s 748 mmHg 76%
    23:00 +11°C° 0,1 mm 4 m/s 748 mmHg 79%

    23 Juin, Samedi

    Heure Température Précipitation Vent Pression Humidité
    00:00 +10°C° 0,1 mm 5 m/s 748 mmHg 82%
    01:00 +10°C° 0,1 mm 5 m/s 748 mmHg 85%
    02:00 +9°C° 0,1 mm 5 m/s 748 mmHg 88%
    03:00 +9°C° 0,1 mm 5 m/s 748 mmHg 90%
    04:00 +9°C° 0,1 mm 5 m/s 748 mmHg 92%
    05:00 +9°C° 0,1 mm 6 m/s 748 mmHg 90%
    06:00 +10°C° 0,1 mm 6 m/s 749 mmHg 87%
    07:00 +10°C° 0,1 mm 7 m/s 749 mmHg 85%
    08:00 +11°C° 0,1 mm 7 m/s 749 mmHg 81%
    09:00 +11°C° 0,1 mm 7 m/s 749 mmHg 77%
    10:00 +12°C° 0,1 mm 7 m/s 749 mmHg 73%
    11:00 +12°C° 0,1 mm 7 m/s 749 mmHg 72%
    12:00 +12°C° 0,1 mm 8 m/s 749 mmHg 70%
    13:00 +13°C° 0,1 mm 8 m/s 749 mmHg 69%
    14:00 +13°C° 0,1 mm 8 m/s 749 mmHg 70%
    15:00 +14°C° 0,1 mm 7 m/s 750 mmHg 70%
    16:00 +14°C° 0,1 mm 7 m/s 750 mmHg 70%
    17:00 +14°C° 0 mm 6 m/s 750 mmHg 71%
    18:00 +13°C° 0 mm 6 m/s 750 mmHg 72%
    19:00 +13°C° 0 mm 5 m/s 750 mmHg 74%
    20:00 +13°C° 0 mm 5 m/s 750 mmHg 75%
    21:00 +12°C° 0 mm 5 m/s 751 mmHg 76%
    22:00 +12°C° 0 mm 5 m/s 751 mmHg 77%
    23:00 +10°C° 0 mm 5 m/s 751 mmHg 79%
    Voir plus